CW6020 Weather Reports


time (UTC)temp
C
wind
direction
speed
KPH
gust
KPH
rain 1hr
cm
rain 24hr
cm
rain mn
cm
humidity
%
barometer
mb
20260502164040 18 128 3.2 6.4 0.00 0.05 0.05 81 1017.2
20260502163030 18 159 3.2 6.4 0.00 0.05 0.05 80 1017.0
20260502162021 18 150 3.2 6.4 0.00 0.05 0.05 81 1016.9
20260502161021 18 160 3.2 6.4 0.00 0.05 0.05 82 1017.2
20260502152020 20 152 3.2 6.4 0.00 0.05 0.05 78 1017.9
20260502151021 19 146 3.2 8.0 0.00 0.05 0.05 79 1017.8
20260502123020 20 153 6.4 11.3 0.00 0.05 0.05 77 1019.3
20260502122020 20 144 4.8 9.7 0.00 0.05 0.05 77 1019.4
20260502121020 20 153 4.8 9.7 0.00 0.05 0.05 78 1019.4
20260502115020 18 105 4.8 9.7 0.00 0.05 0.05 84 1019.8
20260502114020 19 146 6.4 12.9 0.00 0.05 0.05 83 1019.7
20260502113020 19 128 4.8 9.7 0.00 0.05 0.05 84 1019.8
20260502112020 19 124 3.2 9.7 0.00 0.05 0.05 83 1019.7
20260502111020 19 152 4.8 9.7 0.00 0.05 0.05 83 1019.8
20260502110021 19 129 3.2 6.4 0.00 0.05 0.05 83 1019.8
20260502105041 18 151 6.4 9.7 0.00 0.08 0.05 86 1019.8
20260502104041 19 143 6.4 12.9 0.00 0.08 0.05 85 1020.0
20260502103021 18 150 4.8 8.0 0.00 0.08 0.05 86 1020.1
20260502102020 19 119 4.8 9.7 0.00 0.08 0.05 84 1020.2
20260502101020 19 130 6.4 9.7 0.00 0.10 0.05 87 1020.1
20260502091021 17 147 3.2 9.7 0.03 0.10 0.05 94 1020.4
20260502071020 17 106 1.6 6.4 0.00 0.18 0.00 85 1020.3
20260502070020 17 39 1.6 9.7 0.00 0.18 0.00 86 1020.2
20260502065020 17 358 3.2 9.7 0.00 0.18 0.00 85 1020.4
20260502064040 17 347 3.2 8.0 0.00 0.18 0.00 86 1020.4
20260502063020 17 345 4.8 14.5 0.00 0.18 0.00 86 1020.4
20260502062020 16 350 8.0 14.5 0.00 0.18 0.00 87 1020.2
20260502061020 16 348 8.0 14.5 0.00 0.18 0.00 89 1020.1
20260502060020 16 15 3.2 12.9 0.00 0.18 0.00 89 1020.0
20260502055020 16 359 3.2 8.0 0.00 0.18 0.00 89 1020.0
20260502054021 16 0 4.8 11.3 0.00 0.18 0.00 89 1020.0
20260502053041 16 4 6.4 12.9 0.00 0.18 0.00 89 1020.0
20260502052041 16 360 6.4 14.5 0.00 0.18 0.00 88 1019.8
20260502051020 16 344 6.4 16.1 0.00 0.18 0.00 87 1019.8
20260502050021 16 349 11.3 22.5 0.00 0.18 0.00 87 1019.8
20260502045020 16 350 8.0 17.7 0.00 0.18 0.00 87 1019.9
20260502044020 16 350 11.3 17.7 0.00 0.18 0.00 87 1019.9
20260502043020 16 3 6.4 16.1 0.00 0.18 0.00 86 1019.9
20260502042020 16 360 8.0 16.1 0.00 0.18 0.00 87 1020.0
20260502041020 16 355 9.7 17.7 0.00 0.18 0.00 88 1020.0
20260502040020 16 351 8.0 19.3 0.00 0.18 0.00 88 1020.1
20260502035021 16 354 9.7 19.3 0.00 0.18 0.00 89 1020.1
20260502034020 16 341 11.3 19.3 0.00 0.18 0.00 90 1020.1
20260502033020 16 354 11.3 19.3 0.00 0.18 0.00 90 1020.0
20260502032021 16 349 11.3 20.9 0.00 0.18 0.00 90 1019.9
20260502031041 16 353 8.0 17.7 0.00 0.18 0.00 90 1019.9
20260502030022 16 352 11.3 19.3 0.00 0.18 0.00 89 1019.9
20260502025021 16 356 8.0 16.1 0.00 0.18 0.00 88 1020.0
20260502024041 16 348 8.0 17.7 0.00 0.18 0.00 87 1020.1
20260502023021 16 351 11.3 20.9 0.00 0.18 0.00 87 1020.0
20260502022021 16 346 14.5 25.7 0.00 0.18 0.00 86 1020.1
20260502021021 16 345 12.9 22.5 0.00 0.18 0.00 85 1020.2
20260502020021 16 355 11.3 19.3 0.00 0.18 0.00 86 1020.3
20260502015021 16 350 9.7 19.3 0.00 0.18 0.00 86 1020.4
20260502014021 16 353 11.3 17.7 0.00 0.18 0.00 88 1020.5
20260502013021 16 352 11.3 16.1 0.00 0.18 0.00 88 1020.6
20260502012041 16 349 8.0 20.9 0.00 0.18 0.00 89 1020.6
20260502011021 16 351 12.9 24.1 0.00 0.18 0.00 89 1020.6
20260502010021 16 342 8.0 16.1 0.00 0.18 0.00 89 1020.7
20260502005041 16 344 4.8 9.7 0.00 0.18 0.00 89 1020.8
20260502004021 16 339 6.4 17.7 0.00 0.18 0.00 87 1020.8
20260502003021 16 343 9.7 16.1 0.00 0.18 0.00 87 1020.9
20260502002021 16 352 9.7 14.5 0.00 0.18 0.00 87 1021.0
20260502001021 16 350 6.4 12.9 0.00 0.18 0.00 88 1021.3
20260502000021 16 354 8.0 11.3 0.00 0.18 0.00 89 1021.3
20260501235021 16 350 6.4 11.3 0.00 0.18 0.00 90 1021.4
20260501234021 16 1 6.4 9.7 0.00 0.18 0.00 90 1021.6
20260501233021 16 355 8.0 12.9 0.00 0.18 0.00 90 1021.6
20260501232021 16 354 6.4 14.5 0.00 0.18 0.00 90 1021.7
20260501231021 16 343 9.7 17.7 0.00 0.18 0.00 91 1021.5
20260501230021 16 343 8.0 14.5 0.00 0.18 0.00 90 1021.6
20260501225021 16 345 9.7 16.1 0.00 0.18 0.00 91 1021.6
20260501224021 16 351 6.4 16.1 0.00 0.18 0.00 91 1021.7
20260501223021 16 346 4.8 9.7 0.00 0.18 0.00 91 1021.7
20260501222021 16 4 3.2 11.3 0.00 0.18 0.00 90 1021.8
20260501221021 16 321 4.8 16.1 0.00 0.18 0.00 90 1021.8
20260501215041 16 4 3.2 9.7 0.00 0.18 0.18 90 1022.1
20260501214021 16 359 3.2 8.0 0.00 0.18 0.18 90 1022.0
20260501213021 16 3 4.8 12.9 0.00 0.18 0.18 90 1022.0
20260501212041 16 27 4.8 12.9 0.00 0.18 0.18 90 1022.1
20260501211021 16 357 6.4 17.7 0.00 0.18 0.18 90 1022.2
20260501210021 16 358 3.2 6.4 0.00 0.18 0.18 90 1022.3
20260501205021 16 324 3.2 14.5 0.00 0.18 0.18 90 1022.0
20260501204021 16 350 8.0 22.5 0.00 0.18 0.18 90 1022.0
20260501203021 16 344 4.8 17.7 0.00 0.18 0.18 90 1021.8
20260501202040 16 315 8.0 20.9 0.00 0.18 0.18 90 1021.6
20260501201041 16 307 8.0 16.1 0.00 0.18 0.18 90 1021.5
20260501200021 16 355 9.7 17.7 0.00 0.18 0.18 90 1021.3
20260501195021 16 0 6.4 12.9 0.00 0.18 0.18 89 1021.3
20260501194020 16 351 8.0 19.3 0.00 0.18 0.18 89 1021.0
20260501193021 16 332 3.2 9.7 0.00 0.18 0.18 88 1021.1
20260501192021 16 323 8.0 20.9 0.00 0.18 0.18 88 1021.0
20260501191021 17 173 4.8 14.5 0.00 0.18 0.18 87 1020.9
20260501190021 17 218 4.8 11.3 0.00 0.18 0.18 86 1020.9
20260501185021 17 269 4.8 16.1 0.00 0.18 0.18 86 1020.8
20260501184041 17 294 8.0 17.7 0.00 0.18 0.18 86 1020.8
20260501183020 17 319 4.8 16.1 0.00 0.18 0.18 85 1020.7
20260501182021 17 279 6.4 20.9 0.00 0.18 0.18 84 1020.5
20260501181101 17 348 6.4 20.9 0.00 0.18 0.18 84 1020.4